Regional Weather Roundup
Issued by NWS Nashville, TN

Home | Current Version | Previous Version | Text Only | Print | Product List | Glossary On
Versions: 1 2 3 4 5 6 7 8 9 10 11 12 13 14 15 16 17 18 19 20 21 22 23 24 25 26 27
000
ASUS44 KOHX 290510
RWROHX
MIDDLE TENNESSEE HOURLY WEATHER ROUNDUP
NATIONAL WEATHER SERVICE NASHVILLE TN
1200 AM CDT MON AUG 29 2016

NOTE: "FAIR" INDICATES FEW OR NO CLOUDS BELOW 12,000 FEET WITH
NO SIGNIFICANT WEATHER AND/OR OBSTRUCTIONS TO VISIBILITY.

* THESE REPORTS ARE NOT UNDER NWS QUALITY CONTROL AND MAY NOT
  REPORT WEATHER SUCH AS PRECIPITATION AND FOG.


TNZ005>011-023>034-057-059-062>066-078-080-290600
...NORTHERN MIDDLE TENNESSEE...

CITY           SKY/WX    TMP DP  RH WIND       PRES   REMARKS
CLARKSVILLE    CLEAR     75  69  81 CALM      30.13S
CROSSVILLE     PTCLDY    69  67  93 E3        30.21F
NASHVILLE      CLEAR     76  69  79 E7        30.13S
WEST NASHVILLE CLEAR     75  72  88 NE6       30.13R
SPARTA         CLEAR     70  70 100 CALM      30.15S
$$
TNZ056-058-060-061-075>077-079-093>097-290600
...SOUTHERN MIDDLE TENNESSEE...

CITY           SKY/WX    TMP DP  RH WIND       PRES   REMARKS
COLUMBIA       CLEAR    N/A N/A N/A CALM      30.11S
FAYETTEVILLE   PTCLDY    75  70  83 NE5       30.13R
MCMINNVILLE    CLEAR     72  72 100 NE6       30.15F
SHELBYVILLE    CLEAR     75  73  94 CALM      30.14F
TULLAHOMA      CLEAR     73  70  88 NE6       30.16S
WINCHESTER     CLEAR     70  70 100 CALM      30.15R
$$


...KEY TO REMARKS...
VSB - VISIBILITY IN MILES
WCI - WIND CHILL INDEX
HX  - HEAT INDEX





USA.gov is the U.S. government's official web portal to all federal, state and local government web resources and services.